Hourly Data Report for January 05, 2020

TORONTO CITY
ONTARIO
Current Station Operator: ECCC - MSC

43°40'00.000" N
79°24'00.000" W
112.50 m
6158355
71508
XTO

Download Data

Hourly Data (January 2020)
Hourly Data Report for January 5, 2020
TIME
LST
Temp Definition
°C
Dew Point Definition
°C
Rel Hum Definition
%
Precip. Amount Definition
mm

Wind Dir Definition
10's deg

Wind Spd Definition
km/h
Visibility Definition
km
Stn Press Definition
kPa
Hmdx Definition


Wind Chill Definition


Weather Definition


00:00 0.7 -5.1 65 0.0       99.62     LegendNANA
01:00 0.3 -6.3 61 0.0       99.68     LegendNANA
02:00 0.5 -6.6 59 0.0       99.73     LegendNANA
03:00 0.5 -6.3 60 0.0       99.82     LegendNANA
04:00 0.4 -5.1 67 0.0       99.90     LegendNANA
05:00 0.3 -5.3 66 0.0       99.95     LegendNANA
06:00 0.0 -5.7 66 0.0       100.03     LegendNANA
07:00 -0.2 -6.2 64 0.0       100.10     LegendNANA
08:00 -0.9 -7.5 61 0.0       100.19     LegendNANA
09:00 -0.2 -7.6 58 0.0       100.29     LegendNANA
10:00 0.2 -6.9 59 0.0       100.35     LegendNANA
11:00 1.2 -6.9 55 0.2       100.31     LegendNANA
12:00 1.3 -5.3 61 0.0       100.21     LegendNANA
13:00 1.7 -4.7 63 0.0       100.13     LegendNANA
14:00 1.5 -4.5 64 0.0       100.09     LegendNANA
15:00 1.6 -4.0 66 0.0       100.01     LegendNANA
16:00 1.6 -3.9 67 0.0       99.94     LegendNANA
17:00 1.7 -4.4 64 0.0       99.89     LegendNANA
18:00 1.2 -5.2 62 0.0       99.90     LegendNANA
19:00 0.0 -2.4 84 0.2       99.88     LegendNANA
20:00 -0.3 -1.8 90 1.3       99.83     LegendNANA
21:00 -0.2 -1.2 92 1.8       99.73     LegendNANA
22:00 0.0 -1.0 93 1.1       99.59     LegendNANA
23:00 0.3 -0.7 93 0.7       99.49     LegendNANA

Notes on Data Quality.

Legend

  • E = Estimated
  • M = Missing
  • NA = Not Available*
  • [empty] = Indicates an unobserved value
Date modified: